This is the latest recevied weather packets stored in our database for station/object W2GRK-15. If no packets are shown the sender has not sent any weather packets the latest 10 day(s).
| Time | Temp. | Humidity | Pressure | Rain* | Wind** | Luminosity | Snow |
|---|---|---|---|---|---|---|---|
| 1777928895 | 22.22° C | 34% | 1009.9 hPa | 0 mm | - | 69 W/m² | - |
| 1777928783 | 22.22° C | 35% | 1010.1 hPa | 0 mm | - | 70 W/m² | - |
| 1777928710 | 22.22° C | 34% | 1010 hPa | 0 mm | - | 69 W/m² | - |
| 1777928541 | 22.78° C | 34% | 1009.9 hPa | 0 mm | - | 71 W/m² | - |
| 1777928364 | 22.78° C | 36% | 1009.9 hPa | 0 mm | - | 85 W/m² | - |
| 1777928077 | 22.22° C | 34% | 1009.8 hPa | 0 mm | - | 77 W/m² | - |
| 1777927702 | 22.22° C | 34% | 1009.9 hPa | 0 mm | - | 124 W/m² | - |
| 1777927347 | 22.78° C | 34% | 1010 hPa | 0 mm | - | 80 W/m² | - |
| 1777926975 | 22.78° C | 32% | 1010 hPa | 0 mm | - | 117 W/m² | - |
| 1777926748 | 22.78° C | 35% | 1009.9 hPa | 0 mm | - | 419 W/m² | - |
| 1777926684 | 22.78° C | 33% | 1009.8 hPa | 0 mm | - | 390 W/m² | - |
| 1777926571 | 23.33° C | 33% | 1010 hPa | 0 mm | - | 395 W/m² | - |
| 1777926377 | 22.78° C | 33% | 1010 hPa | 0 mm | - | 442 W/m² | - |
| 1777926200 | 22.78° C | 32% | 1009.9 hPa | 0 mm | - | 171 W/m² | - |
| 1777926088 | 23.33° C | 33% | 1009.9 hPa | 0 mm | - | 206 W/m² | - |
| 1777925958 | 23.33° C | 33% | 1009.9 hPa | 0 mm | - | 451 W/m² | - |
| 1777925717 | 23.33° C | 32% | 1010 hPa | 0 mm | - | 449 W/m² | - |
| 1777924586 | 23.33° C | 34% | 1010.1 hPa | 0 mm | - | 494 W/m² | - |
| 1777924364 | 23.33° C | 35% | 1010.2 hPa | 0 mm | - | 503 W/m² | - |
| 1777924167 | 23.33° C | 35% | 1010.3 hPa | 0 mm | - | 518 W/m² | - |
| 1777923990 | 23.33° C | 33% | 1010.2 hPa | 0 mm | - | 527 W/m² | - |
| 1777923201 | 23.33° C | 33% | 1010.2 hPa | 0 mm | - | 561 W/m² | - |
| 1777922383 | 22.78° C | 34% | 1010.3 hPa | 0 mm | - | 598 W/m² | - |
| 1777922206 | 22.78° C | 34% | 1010.3 hPa | 0 mm | - | 606 W/m² | - |
| 1777921945 | 23.33° C | 33% | 1010.6 hPa | 0 mm | - | 613 W/m² | - |
* Rain latest hour (hover to see other rain measurements)
** Current wind speed in m/s (hover to see current wind gust speed)